CW7802 Weather Reports


Display with metric or nautical units.
time (UTC)temp
F
wind
direction
speed
MPH
gust
MPH
rain 1hr
in
rain 24hr
in
rain mn
in
humidity
%
barometer
mb
20260902183040 77 225 1.0 7.0 0.00 0.00 0.00 16 865.8
20260902182531 76 225 1.0 4.0 0.00 0.00 0.00 17 865.9
20260902182032 76 225 1.0 4.0 0.00 0.00 0.00 17 865.9
20260902181529 76 225 0.0 3.0 0.00 0.00 0.00 18 865.9
20260902181028 76 225 0.0 6.0 0.00 0.00 0.00 17 865.9
20260902180525 76 225 1.0 6.0 0.00 0.00 0.00 18 865.8
20260902180031 76 225 1.0 3.0 0.00 0.00 0.00 18 865.9
20260902175524 75 225 0.0 3.0 0.00 0.00 0.00 17 865.8
20260902175022 75 225 0.0 6.0 0.00 0.00 0.00 17 865.8
20260902174522 75 225 2.0 6.0 0.00 0.00 0.00 17 865.8
20260902174020 74 225 1.0 4.0 0.00 0.00 0.00 17 865.8
20260902173518 74 227 0.0 5.0 0.00 0.00 0.00 18 865.8
20260902173021 73 226 0.0 5.0 0.00 0.00 0.00 18 865.8
20260902172518 73 227 1.0 4.0 0.00 0.00 0.00 17 865.8
20260902172016 73 227 1.0 5.0 0.00 0.00 0.00 18 865.8
20260902171513 72 227 1.0 5.0 0.00 0.00 0.00 17 865.7
20260902171011 71 227 1.0 7.0 0.00 0.00 0.00 17 865.7
20260902170509 71 227 1.0 7.0 0.00 0.00 0.00 17 865.7
20260902170008 71 227 1.0 6.0 0.00 0.00 0.00 18 865.7
20260902165510 70 227 0.0 3.0 0.00 0.00 0.00 19 865.6
20260902165005 69 227 0.0 3.0 0.00 0.00 0.00 19 865.6
20260902164504 69 227 0.0 3.0 0.00 0.00 0.00 20 865.6
20260902164003 68 227 0.0 3.0 0.00 0.00 0.00 20 865.5
20260902163501 67 227 0.0 4.0 0.00 0.00 0.00 20 865.5
20260902163100 67 227 0.0 4.0 0.00 0.00 0.00 20 865.5
20260902162558 67 227 0.0 4.0 0.00 0.00 0.00 19 865.5
20260902162057 66 227 0.0 5.0 0.00 0.00 0.00 21 865.5
20260902161555 66 360 2.0 5.0 0.00 0.00 0.00 19 865.5
20260902161055 66 360 2.0 5.0 0.00 0.00 0.00 20 865.5
20260902160507 65 360 1.0 8.0 0.00 0.00 0.00 20 865.4
20260902155119 64 360 2.0 8.0 0.00 0.00 0.00 20 865.3
20260902154539 64 360 1.0 5.0 0.00 0.00 0.00 20 865.3
20260902152033 62 360 1.0 5.0 0.00 0.00 0.00 21 865.1
20260902151042 62 360 1.0 5.0 0.00 0.00 0.00 21 865.2
20260902150514 62 360 1.0 5.0 0.00 0.00 0.00 22 865.1
20260902150019 61 360 2.0 5.0 0.00 0.00 0.00 22 865.1
20260902144518 61 360 1.0 4.0 0.00 0.00 0.00 21 865.1
20260902143550 61 360 0.0 6.0 0.00 0.00 0.00 21 865.1
20260902142648 61 360 1.0 4.0 0.00 0.00 0.00 21 865.1
20260902142014 61 360 1.0 5.0 0.00 0.00 0.00 21 865.2
20260902141607 61 360 1.0 5.0 0.00 0.00 0.00 21 865.1
20260902141013 61 360 2.0 8.0 0.00 0.00 0.00 20 865.0
20260902140508 61 360 1.0 8.0 0.00 0.00 0.00 21 865.0
20260902140105 61 360 2.0 5.0 0.00 0.00 0.00 20 864.9
20260902135614 61 360 2.0 5.0 0.00 0.00 0.00 21 864.9
20260902134039 61 360 1.0 8.0 0.00 0.00 0.00 21 864.8
20260902133540 60 360 2.0 8.0 0.00 0.00 0.00 21 864.7
20260902133051 60 360 0.0 3.0 0.00 0.00 0.00 22 864.7
20260902132540 60 360 0.0 3.0 0.00 0.00 0.00 22 864.5
20260902132042 60 360 0.0 3.0 0.00 0.00 0.00 22 864.5
20260902131549 60 360 0.0 4.0 0.00 0.00 0.00 22 864.4
20260902131038 61 360 0.0 4.0 0.00 0.00 0.00 22 864.4
20260902130538 61 360 0.0 3.0 0.00 0.00 0.00 22 864.4
20260902130038 61 360 1.0 4.0 0.00 0.00 0.00 21 864.4
20260902125538 61 360 1.0 5.0 0.00 0.00 0.00 21 864.4
20260902125038 61 360 1.0 5.0 0.00 0.00 0.00 21 864.5
20260902124544 61 360 1.0 5.0 0.00 0.00 0.00 22 864.4
20260902124037 61 360 1.0 5.0 0.00 0.00 0.00 22 864.4
20260902123540 61 360 1.0 4.0 0.00 0.00 0.00 23 864.4
20260902123102 61 360 1.0 5.0 0.00 0.00 0.00 22 864.4
20260902122537 61 360 0.0 4.0 0.00 0.00 0.00 23 864.4
20260902122037 62 360 1.0 6.0 0.00 0.00 0.00 22 864.4
20260902121543 62 360 0.0 6.0 0.00 0.00 0.00 24 864.5
20260902121036 62 360 0.0 4.0 0.00 0.00 0.00 26 864.5
20260902120536 62 360 0.0 4.0 0.00 0.00 0.00 27 864.4
20260902120037 62 360 1.0 5.0 0.00 0.00 0.00 28 864.4
20260902115539 62 360 1.0 5.0 0.00 0.00 0.00 28 864.4
20260902115040 62 360 1.0 3.0 0.00 0.00 0.00 28 864.4
20260902114541 63 360 0.0 3.0 0.00 0.00 0.00 30 864.4
20260902114035 63 360 1.0 8.0 0.00 0.00 0.00 29 864.5
20260902113532 63 360 2.0 8.0 0.00 0.00 0.00 27 864.4
20260902113034 62 360 1.0 6.0 0.00 0.00 0.00 29 864.5
20260902112532 62 360 1.0 6.0 0.00 0.00 0.00 26 864.4
20260902112036 62 360 1.0 8.0 0.00 0.00 0.00 26 864.4
20260902111534 61 360 1.0 8.0 0.00 0.00 0.00 24 864.4
20260902111029 61 360 1.0 3.0 0.00 0.00 0.00 23 864.5
20260902110529 61 360 0.0 3.0 0.00 0.00 0.00 22 864.5
20260902110029 61 360 0.0 3.0 0.00 0.00 0.00 22 864.5
20260902105528 61 360 0.0 3.0 0.00 0.00 0.00 22 864.5
20260902105027 61 360 0.0 3.0 0.00 0.00 0.00 22 864.6
20260902104527 62 360 1.0 3.0 0.00 0.00 0.00 21 864.6
20260902104027 62 360 1.0 3.0 0.00 0.00 0.00 21 864.7
20260902103526 62 360 1.0 4.0 0.00 0.00 0.00 21 864.7
20260902103029 62 360 0.0 6.0 0.00 0.00 0.00 21 864.7
20260902102528 62 360 2.0 6.0 0.00 0.00 0.00 21 864.7
20260902102026 62 360 1.0 4.0 0.00 0.00 0.00 21 864.7
20260902101523 62 360 1.0 5.0 0.00 0.00 0.00 21 864.7
20260902101022 61 360 1.0 5.0 0.00 0.00 0.00 22 864.8
20260902100523 61 360 0.0 3.0 0.00 0.00 0.00 23 864.8
20260902100022 61 360 0.0 2.0 0.00 0.00 0.00 23 864.8
20260902095522 61 360 0.0 2.0 0.00 0.00 0.00 24 864.7
20260902095024 61 360 0.0 6.0 0.00 0.00 0.00 24 864.8
20260902094522 61 360 1.0 6.0 0.00 0.00 0.00 24 864.9
20260902094026 61 360 2.0 4.0 0.00 0.00 0.00 23 864.9
20260902093522 61 360 2.0 4.0 0.00 0.00 0.00 23 864.8
20260902093021 61 360 1.0 4.0 0.00 0.00 0.00 23 864.9
20260902092521 61 360 1.0 4.0 0.00 0.00 0.00 23 864.9
20260902092022 61 360 1.0 6.0 0.00 0.00 0.00 23 864.9
20260902091521 61 360 1.0 4.0 0.00 0.00 0.00 23 864.9
20260902091026 61 360 0.0 6.0 0.00 0.00 0.00 23 864.9
20260902090520 61 360 1.0 6.0 0.00 0.00 0.00 23 864.8
20260902090028 61 360 0.0 5.0 0.00 0.00 0.00 23 864.9
20260902085519 61 360 1.0 5.0 0.00 0.00 0.00 23 865.0
20260902085019 61 360 1.0 5.0 0.00 0.00 0.00 23 865.1
20260902084518 61 360 1.0 6.0 0.00 0.00 0.00 22 865.1
20260902084018 61 360 1.0 6.0 0.00 0.00 0.00 23 865.0
20260902083520 61 360 1.0 4.0 0.00 0.00 0.00 23 865.0
20260902083018 61 360 0.0 3.0 0.00 0.00 0.00 23 865.1
20260902082516 61 360 0.0 2.0 0.00 0.00 0.00 23 865.1
20260902082015 60 360 0.0 4.0 0.00 0.00 0.00 24 865.0
20260902081514 60 360 0.0 4.0 0.00 0.00 0.00 24 865.1
20260902081014 60 360 0.0 3.0 0.00 0.00 0.00 24 865.1
20260902080513 60 360 0.0 5.0 0.00 0.00 0.00 24 865.1
20260902080013 60 360 0.0 5.0 0.00 0.00 0.00 24 865.1
20260902075512 60 360 0.0 3.0 0.00 0.00 0.00 24 865.1
20260902075012 60 360 1.0 3.0 0.00 0.00 0.00 24 865.1
20260902074515 60 360 1.0 3.0 0.00 0.00 0.00 24 865.1
20260902074012 60 360 1.0 3.0 0.00 0.00 0.00 24 865.1
20260902073511 60 360 1.0 3.0 0.00 0.00 0.00 24 865.1
20260902073011 60 360 0.0 3.0 0.00 0.00 0.00 24 865.1
20260902072510 60 360 0.0 3.0 0.00 0.00 0.00 24 865.0
20260902072010 59 360 0.0 5.0 0.00 0.00 0.00 25 865.0
20260902071509 59 360 0.0 5.0 0.00 0.00 0.00 24 864.9
20260902071009 60 360 0.0 3.0 0.00 0.00 0.00 25 864.9
20260902070508 60 360 0.0 4.0 0.00 0.00 0.00 24 865.0
20260902070008 60 360 1.0 4.0 0.00 0.00 0.00 25 864.9
20260902065507 60 360 1.0 3.0 0.00 0.00 0.00 25 864.8
20260902065007 60 360 0.0 3.0 0.00 0.00 0.00 25 864.9
20260902064508 60 360 0.0 4.0 0.00 0.00 0.00 25 864.9
20260902064009 60 360 0.0 4.0 0.00 0.00 0.00 25 864.9
20260902063507 61 360 0.0 4.0 0.00 0.00 0.00 25 864.9
20260902063007 61 360 1.0 6.0 0.00 0.00 0.00 25 864.9
20260902062507 61 360 2.0 6.0 0.00 0.00 0.00 25 864.9
20260902062010 61 360 1.0 6.0 0.00 0.00 0.00 26 864.8
20260902061506 61 360 1.0 6.0 0.00 0.00 0.00 26 864.7
20260902061006 61 360 2.0 5.0 0.00 0.00 0.00 25 864.7
20260902060509 61 360 2.0 5.0 0.00 0.00 0.00 26 864.6
20260902060006 61 360 1.0 5.0 0.00 0.00 0.00 25 864.6
20260902055508 61 360 1.0 6.0 0.00 0.00 0.00 26 864.6
20260902055005 61 360 0.0 4.0 0.00 0.00 0.00 25 864.6
20260902054506 61 360 0.0 3.0 0.00 0.00 0.00 26 864.6
20260902054004 61 360 1.0 5.0 0.00 0.00 0.00 25 864.6
20260902053504 61 360 1.0 6.0 0.00 0.00 0.00 25 864.6
20260902053007 61 360 2.0 6.0 0.00 0.00 0.00 25 864.7
20260902052504 61 360 0.0 5.0 0.00 0.00 0.00 25 864.8
20260902052008 61 360 2.0 5.0 0.00 0.00 0.00 25 864.7
20260902051504 61 360 0.0 4.0 0.00 0.00 0.00 25 864.8
20260902051004 61 360 0.0 4.0 0.00 0.00 0.00 25 864.7
20260902050503 61 360 1.0 4.0 0.00 0.00 0.00 25 864.8
20260902050006 61 360 1.0 5.0 0.00 0.00 0.00 26 864.9
20260902045505 61 360 1.0 5.0 0.00 0.00 0.00 26 864.8
20260902045002 61 360 1.0 5.0 0.00 0.00 0.00 26 864.8
20260902044507 61 360 0.0 5.0 0.00 0.00 0.00 28 864.8
20260902044006 60 360 1.0 3.0 0.00 0.00 0.00 28 864.8
20260902043503 60 360 0.0 3.0 0.00 0.00 0.00 30 864.7
20260902043002 60 360 0.0 5.0 0.00 0.00 0.00 30 864.7
20260902042502 60 360 1.0 5.0 0.00 0.00 0.00 31 864.6
20260902042002 60 360 0.0 4.0 0.00 0.00 0.00 33 864.5
20260902041506 59 360 1.0 3.0 0.00 0.00 0.00 37 864.5
20260902041004 59 360 0.0 3.0 0.00 0.00 0.00 39 864.5
20260902040502 59 360 0.0 4.0 0.00 0.00 0.00 43 864.4
20260902040001 59 360 1.0 4.0 0.00 0.00 0.00 48 864.4
20260902035600 59 360 0.0 1.0 0.00 0.00 0.00 53 864.3
20260902035100 59 360 0.0 1.0 0.00 0.00 0.00 55 864.2
20260902034606 59 360 0.0 3.0 0.00 0.00 0.00 56 864.1
20260902034059 59 360 0.0 3.0 0.00 0.00 0.00 56 864.1
20260902033559 59 360 0.0 4.0 0.00 0.00 0.00 56 864.1
20260902033059 59 360 0.0 4.0 0.00 0.00 0.00 56 864.1
20260902032600 60 360 1.0 4.0 0.00 0.00 0.00 55 864.0
20260902032057 60 360 0.0 4.0 0.00 0.00 0.00 54 864.0
20260902031556 60 360 1.0 4.0 0.00 0.00 0.00 54 864.0
20260902031055 60 360 0.0 3.0 0.00 0.00 0.00 53 863.9
20260902030555 61 360 0.0 3.0 0.00 0.00 0.00 52 863.8
20260902030054 61 360 0.0 3.0 0.00 0.00 0.00 51 863.8
20260902025554 61 360 0.0 3.0 0.00 0.00 0.00 49 863.8
20260902025053 62 360 1.0 3.0 0.00 0.00 0.00 47 863.8
20260902024553 62 360 0.0 3.0 0.00 0.00 0.00 46 863.7
20260902024053 63 360 0.0 3.0 0.00 0.00 0.00 44 863.7
20260902023552 63 360 0.0 3.0 0.00 0.00 0.00 43 863.7
20260902023052 64 360 0.0 3.0 0.00 0.00 0.00 42 863.7
20260902022552 64 360 1.0 3.0 0.00 0.00 0.00 41 863.7
20260902022051 65 360 1.0 3.0 0.00 0.00 0.00 42 863.6
20260902021555 66 360 0.0 5.0 0.00 0.00 0.00 42 863.6
20260902021050 66 227 0.0 5.0 0.00 0.00 0.00 40 863.6
20260902020550 67 227 1.0 4.0 0.00 0.00 0.00 40 863.6
20260902020055 68 227 0.0 2.0 0.00 0.00 0.00 39 863.7
20260902015550 68 227 0.0 3.0 0.00 0.00 0.00 39 863.7
20260902015052 69 360 0.0 5.0 0.00 0.00 0.00 38 863.8
20260902014550 69 360 0.0 5.0 0.00 0.00 0.00 37 863.8
20260902014052 70 227 0.0 2.0 0.00 0.00 0.00 36 863.7
20260902013549 70 227 0.0 3.0 0.00 0.00 0.00 36 863.8
20260902013049 71 227 0.0 3.0 0.00 0.00 0.00 35 863.8
20260902012549 71 227 0.0 2.0 0.00 0.00 0.00 35 863.8
20260902012049 72 227 0.0 4.0 0.00 0.00 0.00 35 863.8
20260902011549 73 227 1.0 7.0 0.00 0.00 0.00 34 863.9
20260902011051 74 227 1.0 7.0 0.00 0.00 0.00 33 864.0
20260902010548 75 227 0.0 3.0 0.00 0.00 0.00 33 864.0
20260902010048 75 227 0.0 5.0 0.00 0.00 0.00 32 863.9
20260902005548 76 227 1.0 5.0 0.00 0.00 0.00 32 863.9
20260902005048 76 227 1.0 3.0 0.00 0.00 0.00 32 864.0
20260902004547 77 228 1.0 3.0 0.00 0.00 0.00 33 864.0
20260902004048 77 228 0.0 2.0 0.00 0.00 0.00 33 863.9
20260902003547 78 228 0.0 3.0 0.00 0.00 0.00 33 864.0
20260902003048 78 228 0.0 3.0 0.00 0.00 0.00 34 864.0
20260902002547 78 227 1.0 4.0 0.00 0.00 0.00 34 864.1
20260902002047 79 227 1.0 4.0 0.00 0.00 0.00 33 864.1
20260902001547 79 227 0.0 3.0 0.00 0.00 0.00 35 864.1
20260902001045 79 227 0.0 3.0 0.00 0.00 0.00 34 864.1
20260902000545 79 227 0.0 3.0 0.00 0.00 0.00 35 864.2
20260902000052 79 227 1.0 4.0 0.00 0.00 0.00 35 864.2
20260901235549 79 227 1.0 4.0 0.00 0.00 0.00 35 864.3
20260901235045 80 227 0.0 4.0 0.00 0.00 0.00 35 864.3
20260901234548 80 227 0.0 4.0 0.00 0.00 0.00 35 864.3
20260901234048 80 228 2.0 3.0 0.00 0.00 0.00 34 864.3
20260901233545 80 228 1.0 2.0 0.00 0.00 0.00 35 864.4
20260901233048 80 228 0.0 3.0 0.00 0.00 0.00 37 864.3
20260901232545 79 228 1.0 5.0 0.00 0.00 0.00 37 864.4
20260901232045 80 228 1.0 5.0 0.00 0.00 0.00 36 864.4
20260901231546 81 228 1.0 4.0 0.00 0.00 0.00 35 864.4
20260901231043 81 228 1.0 4.0 0.00 0.00 0.00 36 864.4
20260901230544 82 228 1.0 4.0 0.00 0.00 0.00 35 864.5
20260901230051 83 228 0.0 4.0 0.00 0.00 0.00 35 864.5
20260901225544 82 228 1.0 4.0 0.00 0.00 0.00 35 864.6
20260901225043 82 228 0.0 3.0 0.00 0.00 0.00 35 864.4
20260901224543 81 228 1.0 4.0 0.00 0.00 0.00 35 864.5
20260901224045 81 228 2.0 4.0 0.00 0.00 0.00 34 864.5
20260901223542 81 227 0.0 6.0 0.00 0.00 0.00 35 864.6
20260901223102 81 227 0.0 6.0 0.00 0.00 0.00 34 864.7
20260901222542 81 228 1.0 3.0 0.00 0.00 0.00 33 864.7
20260901222043 81 228 0.0 2.0 0.00 0.00 0.00 33 864.7
20260901221545 81 228 0.0 3.0 0.00 0.00 0.00 34 864.6
20260901221036 81 228 1.0 3.0 0.00 0.00 0.00 33 864.8
20260901220537 81 228 0.0 4.0 0.00 0.00 0.00 32 864.8
20260901220046 82 228 1.0 4.0 0.00 0.00 0.00 32 864.9
20260901215536 82 228 1.0 4.0 0.00 0.00 0.00 31 864.9
20260901215035 82 228 1.0 4.0 0.00 0.00 0.00 31 865.0
20260901214538 81 228 1.0 4.0 0.00 0.00 0.00 31 865.0
20260901214035 82 228 1.0 4.0 0.00 0.00 0.00 29 865.0
20260901213537 82 228 1.0 4.0 0.00 0.00 0.00 29 865.0
20260901213037 83 227 1.0 4.0 0.00 0.00 0.00 29 865.1
20260901212535 83 228 0.0 6.0 0.00 0.00 0.00 27 865.2
20260901212035 83 227 1.0 8.0 0.00 0.00 0.00 27 865.1
20260901211535 84 227 1.0 8.0 0.00 0.00 0.00 26 865.0
20260901211032 84 228 1.0 4.0 0.00 0.00 0.00 26 865.2
20260901210531 83 228 1.0 6.0 0.00 0.00 0.00 26 865.1
20260901210038 82 228 1.0 6.0 0.00 0.00 0.00 26 865.2
20260901205532 83 229 1.0 4.0 0.00 0.00 0.00 26 865.1
20260901205030 83 228 0.0 4.0 0.00 0.00 0.00 26 865.2
20260901204538 82 228 1.0 4.0 0.00 0.00 0.00 26 865.2
20260901204030 83 228 1.0 2.0 0.00 0.00 0.00 26 865.3
20260901203530 82 228 0.0 4.0 0.00 0.00 0.00 27 865.3
20260901203043 82 227 1.0 3.0 0.00 0.00 0.00 27 865.3
20260901202529 82 227 1.0 5.0 0.00 0.00 0.00 27 865.3
20260901202029 82 227 0.0 5.0 0.00 0.00 0.00 28 865.4
20260901201529 82 227 1.0 4.0 0.00 0.00 0.00 29 865.4
20260901201029 82 227 0.0 3.0 0.00 0.00 0.00 29 865.4
20260901200531 82 227 1.0 5.0 0.00 0.00 0.00 29 865.4
20260901200041 81 227 0.0 7.0 0.00 0.00 0.00 30 865.4
20260901195528 81 227 1.0 7.0 0.00 0.00 0.00 30 865.5
20260901195027 81 228 1.0 5.0 0.00 0.00 0.00 30 865.4
20260901194528 81 228 1.0 5.0 0.00 0.00 0.00 29 865.5
20260901194026 81 228 1.0 3.0 0.00 0.00 0.00 29 865.5
20260901193527 80 228 0.0 3.0 0.00 0.00 0.00 29 865.5
20260901193027 81 228 1.0 3.0 0.00 0.00 0.00 28 865.6
20260901192526 81 228 1.0 3.0 0.00 0.00 0.00 26 865.5
20260901192028 81 228 1.0 6.0 0.00 0.00 0.00 26 865.6
20260901191524 81 229 0.0 5.0 0.00 0.00 0.00 24 865.6
20260901191023 81 229 1.0 5.0 0.00 0.00 0.00 26 865.7
20260901190522 81 228 1.0 5.0 0.00 0.00 0.00 26 865.7
20260901190038 80 228 1.0 5.0 0.00 0.00 0.00 28 865.7
20260901185518 80 228 1.0 4.0 0.00 0.00 0.00 27 865.7
20260901185020 79 228 1.0 3.0 0.00 0.00 0.00 27 865.7
20260901184518 79 228 1.0 3.0 0.00 0.00 0.00 25 865.8
20260901184017 79 228 0.0 3.0 0.00 0.00 0.00 25 865.8
20260901183517 79 228 0.0 3.0 0.00 0.00 0.00 25 865.8